Retour au catalogue

CENTISPACE-1 S6

ActifNavigationLEO
NORAD 54021·PAYLOAD·🇨🇳 China

Lancé Oct 7, 2022 depuis Yellow Sea Launch Area

Loading…

Prochains Passages (prochaines 24 heures)

TLE

FraisSource: Space-Track

Époque: Sep 14, 2026, 13:16 UTC

1 54021U 22126B   26257.55291967  .00000343  00000-0  10429-3 0  9990
2 54021  54.9982 217.5991 0011772 271.3270  88.6376 14.62381997210073

Suivez CENTISPACE-1 S6 en temps réel avec AllMySat

Download on the App Store